EN

Hourly Weather Lagiewki

Today, 30 July, Friday

Time Temperature Precipitation Wind Pressure Humidity
00:00 +20°C° 0 mm 3 mps 749 mmHg 58%
01:00 +19°C° 0 mm 2 mps 749 mmHg 60%
02:00 +18°C° 0 mm 2 mps 749 mmHg 64%
03:00 +17°C° 0 mm 3 mps 749 mmHg 69%
04:00 +16°C° 0 mm 3 mps 749 mmHg 74%
05:00 +17°C° 0 mm 3 mps 749 mmHg 70%
06:00 +18°C° 0 mm 3 mps 749 mmHg 65%
07:00 +19°C° 0 mm 4 mps 749 mmHg 61%
08:00 +21°C° 0 mm 4 mps 749 mmHg 55%
09:00 +23°C° 0 mm 5 mps 749 mmHg 48%
10:00 +24°C° 0 mm 6 mps 749 mmHg 42%
11:00 +26°C° 0 mm 6 mps 749 mmHg 40%
12:00 +27°C° 0 mm 6 mps 748 mmHg 39%
13:00 +28°C° 0 mm 6 mps 748 mmHg 38%
14:00 +28°C° 0 mm 6 mps 748 mmHg 38%
15:00 +28°C° 0 mm 6 mps 747 mmHg 38%
16:00 +28°C° 0 mm 6 mps 747 mmHg 37%
17:00 +27°C° 0 mm 5 mps 747 mmHg 42%
18:00 +26°C° 0 mm 4 mps 747 mmHg 47%
19:00 +24°C° 0 mm 3 mps 747 mmHg 51%
20:00 +22°C° 0 mm 3 mps 747 mmHg 54%
21:00 +21°C° 0 mm 2 mps 747 mmHg 57%
22:00 +20°C° 0 mm 1 mps 747 mmHg 59%
23:00 +20°C° 0 mm 1 mps 747 mmHg 61%

Tomorrow, 31 July, Saturday

Time Temperature Precipitation Wind Pressure Humidity
00:00 +20°C° 0 mm 1 mps 747 mmHg 62%
01:00 +19°C° 0 mm 1 mps 747 mmHg 63%
02:00 +19°C° 0 mm 1 mps 747 mmHg 64%
03:00 +18°C° 0 mm 2 mps 747 mmHg 65%
04:00 +18°C° 0 mm 2 mps 747 mmHg 66%
05:00 +19°C° 0 mm 3 mps 747 mmHg 63%
06:00 +20°C° 0 mm 3 mps 747 mmHg 61%
07:00 +22°C° 0 mm 3 mps 747 mmHg 59%
08:00 +22°C° 0 mm 4 mps 747 mmHg 59%
09:00 +23°C° 0 mm 4 mps 747 mmHg 58%
10:00 +25°C° 0 mm 5 mps 747 mmHg 58%
11:00 +26°C° 0 mm 5 mps 746 mmHg 51%
12:00 +27°C° 0 mm 6 mps 746 mmHg 45%
13:00 +29°C° 0 mm 6 mps 746 mmHg 38%
14:00 +29°C° 0 mm 6 mps 746 mmHg 36%
15:00 +29°C° 0 mm 7 mps 746 mmHg 34%
16:00 +29°C° 0 mm 7 mps 746 mmHg 32%
17:00 +27°C° 0 mm 6 mps 746 mmHg 36%
18:00 +26°C° 0 mm 5 mps 746 mmHg 40%
19:00 +23°C° 0 mm 4 mps 746 mmHg 44%
20:00 +22°C° 0 mm 4 mps 746 mmHg 48%
21:00 +20°C° 0 mm 3 mps 747 mmHg 52%
22:00 +19°C° 0 mm 3 mps 747 mmHg 56%
23:00 +18°C° 0 mm 3 mps 747 mmHg 59%

Day after tomorrow, 1 August, Sunday

Time Temperature Precipitation Wind Pressure Humidity
00:00 +17°C° 0 mm 3 mps 747 mmHg 62%
01:00 +17°C° 0 mm 3 mps 747 mmHg 66%
02:00 +16°C° 0 mm 3 mps 747 mmHg 69%
03:00 +16°C° 0 mm 3 mps 747 mmHg 72%
04:00 +14°C° 0 mm 3 mps 747 mmHg 75%
05:00 +16°C° 0 mm 3 mps 747 mmHg 72%
06:00 +18°C° 0 mm 3 mps 748 mmHg 69%
07:00 +19°C° 0 mm 3 mps 748 mmHg 65%
08:00 +19°C° 0 mm 3 mps 748 mmHg 65%
09:00 +20°C° 0 mm 3 mps 748 mmHg 64%
10:00 +20°C° 0 mm 3 mps 748 mmHg 63%
11:00 +20°C° 0.3 mm 3 mps 748 mmHg 65%
12:00 +20°C° 0.3 mm 4 mps 748 mmHg 66%
13:00 +20°C° 0.3 mm 4 mps 748 mmHg 68%
14:00 +21°C° 0 mm 4 mps 748 mmHg 63%
15:00 +22°C° 0 mm 4 mps 748 mmHg 57%
16:00 +24°C° 0 mm 3 mps 748 mmHg 52%
17:00 +22°C° 0 mm 3 mps 747 mmHg 55%
18:00 +21°C° 0 mm 2 mps 747 mmHg 58%
19:00 +20°C° 0 mm 2 mps 747 mmHg 61%
20:00 +19°C° 0 mm 2 mps 747 mmHg 64%
21:00 +18°C° 0 mm 2 mps 747 mmHg 68%
22:00 +17°C° 0 mm 2 mps 748 mmHg 72%
23:00 +17°C° 0 mm 2 mps 748 mmHg 72%

2 August, Monday

Time Temperature Precipitation Wind Pressure Humidity
00:00 +17°C° 0 mm 2 mps 748 mmHg 73%
01:00 +17°C° 0 mm 2 mps 748 mmHg 74%
02:00 +16°C° 0 mm 2 mps 748 mmHg 77%
03:00 +15°C° 0 mm 2 mps 748 mmHg 80%
04:00 +14°C° 0 mm 3 mps 748 mmHg 83%
05:00 +16°C° 0 mm 3 mps 748 mmHg 79%
06:00 +17°C° 0 mm 4 mps 748 mmHg 74%
07:00 +19°C° 0 mm 4 mps 748 mmHg 69%
08:00 +20°C° 0.3 mm 5 mps 748 mmHg 65%
09:00 +21°C° 0.3 mm 5 mps 748 mmHg 60%
10:00 +23°C° 0.3 mm 6 mps 748 mmHg 56%
11:00 +23°C° 0.5 mm 6 mps 748 mmHg 56%
12:00 +23°C° 0.5 mm 6 mps 749 mmHg 56%
13:00 +23°C° 0.5 mm 6 mps 749 mmHg 56%
14:00 +22°C° 0.1 mm 6 mps 749 mmHg 54%
15:00 +22°C° 0.1 mm 6 mps 749 mmHg 51%
16:00 +22°C° 0.1 mm 5 mps 749 mmHg 49%
17:00 +21°C° 0 mm 5 mps 750 mmHg 50%
18:00 +20°C° 0 mm 5 mps 750 mmHg 50%
19:00 +20°C° 0 mm 5 mps 750 mmHg 51%
20:00 +18°C° 0 mm 4 mps 751 mmHg 54%
21:00 +17°C° 0 mm 3 mps 751 mmHg 56%
22:00 +16°C° 0 mm 3 mps 751 mmHg 59%
23:00 +14°C° 0 mm 3 mps 751 mmHg 62%

3 August, Tuesday

Time Temperature Precipitation Wind Pressure Humidity
00:00 +14°C° 0 mm 3 mps 752 mmHg 64%
01:00 +13°C° 0 mm 3 mps 752 mmHg 67%
02:00 +13°C° 0 mm 3 mps 752 mmHg 67%
03:00 +14°C° 0 mm 3 mps 752 mmHg 67%
04:00 +14°C° 0 mm 3 mps 752 mmHg 66%
05:00 +16°C° 0 mm 3 mps 752 mmHg 65%
06:00 +17°C° 0 mm 3 mps 752 mmHg 64%
07:00 +18°C° 0 mm 3 mps 752 mmHg 63%
08:00 +19°C° 0 mm 3 mps 752 mmHg 60%
09:00 +19°C° 0 mm 3 mps 753 mmHg 57%
10:00 +20°C° 0 mm 3 mps 753 mmHg 54%
11:00 +22°C° 0 mm 3 mps 752 mmHg 50%
12:00 +24°C° 0 mm 3 mps 752 mmHg 45%
13:00 +26°C° 0 mm 3 mps 752 mmHg 41%
14:00 +25°C° 0.1 mm 3 mps 751 mmHg 47%
15:00 +23°C° 0.1 mm 2 mps 751 mmHg 53%
16:00 +21°C° 0.1 mm 2 mps 751 mmHg 59%
17:00 +20°C° 1.2 mm 2 mps 751 mmHg 69%
18:00 +19°C° 1.2 mm 2 mps 751 mmHg 79%
19:00 +17°C° 1.2 mm 2 mps 751 mmHg 89%
20:00 +17°C° 0.6 mm 2 mps 751 mmHg 88%
21:00 +18°C° 0.6 mm 1 mps 751 mmHg 87%
22:00 +18°C° 0.6 mm 1 mps 751 mmHg 86%
23:00 +18°C° 0.1 mm 1 mps 751 mmHg 88%

4 August, Wednesday

Time Temperature Precipitation Wind Pressure Humidity
00:00 +16°C° 0.1 mm 2 mps 751 mmHg 89%
01:00 +16°C° 0.1 mm 2 mps 751 mmHg 91%
02:00 +16°C° 0 mm 2 mps 751 mmHg 91%
03:00 +15°C° 0 mm 2 mps 751 mmHg 92%
04:00 +15°C° 0 mm 2 mps 751 mmHg 93%
05:00 +16°C° 0 mm 2 mps 751 mmHg 89%
06:00 +17°C° 0 mm 2 mps 751 mmHg 85%
07:00 +17°C° 0 mm 2 mps 752 mmHg 82%
08:00 +19°C° 0 mm 2 mps 752 mmHg 76%
09:00 +20°C° 0 mm 2 mps 752 mmHg 70%
10:00 +21°C° 0 mm 2 mps 752 mmHg 64%
11:00 +23°C° 0.2 mm 2 mps 751 mmHg 61%
12:00 +22°C° 0.2 mm 3 mps 751 mmHg 58%
13:00 +24°C° 0.2 mm 3 mps 751 mmHg 54%
14:00 +24°C° 0.5 mm 3 mps 751 mmHg 56%
15:00 +24°C° 0.5 mm 3 mps 751 mmHg 58%
16:00 +22°C° 0.5 mm 3 mps 751 mmHg 60%
17:00 +21°C° 0.5 mm 3 mps 751 mmHg 65%
18:00 +20°C° 0.5 mm 3 mps 750 mmHg 70%
19:00 +19°C° 0.5 mm 2 mps 750 mmHg 75%
20:00 +18°C° 0.1 mm 3 mps 751 mmHg 79%
21:00 +18°C° 0.1 mm 3 mps 751 mmHg 84%
22:00 +17°C° 0.1 mm 4 mps 751 mmHg 89%
23:00 +15°C° 0.2 mm 4 mps 751 mmHg 90%
Show more